Location: Bukit Nyuki
(2.5885°N, 113.7476°E)
Time: 05:08:40
(UTC+00:00)

Milstar 3 - Pass Details

Date: 18 May 2021
Orbit: 1089 x 5155 km, 28.3° (Epoch: 08 May)

Event Time Altitude Azimuth Distance (km) Brightness Sun altitude
Exits shadow 20:57:28 27° 236° (SW) 2,233 3.8 -18.8°
Maximum altitude 21:00:05 33° 201° (SSW) 2,174 3.9 -18.2°
Drops below altitude 10° 21:09:20 10° 141° (SE) 4,479 6.1 -16.0°
Sets 21:14:31 0° 132° (SE) 6,115 7.0 -14.8°
